Weather History for Anniston, AL

Change the Weather History Date:

Tuesday, October 30, 2012

  Actual Average Record
Temperature  
Mean Temperature 46 °F 59 °F  
Max Temperature 58 °F 71 °F 86 °F (1961)
Min Temperature 34 °F 47 °F 22 °F (1952)
Degree Days  
Heating Degree Days 19    
Month to date heating degree days 132  
Since 1 July heating degree days 137  
Moisture  
Dew Point 26 °F    
Average Humidity 53    
Maximum Humidity 82    
Minimum Humidity 24    
Precipitation  
Precipitation 0.00 in 0.10 in 1.30 in (1949)
Month to date precipitation 2.74 3.01  
Year to date precipitation 38.27 40.86  
Sea Level Pressure  
Sea Level Pressure 29.88 in    
Wind  
Wind Speed 10 mph (West)    
Max Wind Speed 22 mph    
Max Gust Speed 33 mph    
Visibility 10 miles    
Events      
T = Trace of Precipitation, MM = Missing Value Source: NWS Daily Summary

Daily Weather History Graph

Daily Weather History Graph

Search for Another Location

Airport:

Trip Planner

Search our weather history database for the weather conditions in past years. The results will help you decide how hot, cold, wet, or windy it might be!

Date:

Astronomy

Oct. 30, 2012 Rise Set
Actual Time 7:00 AM CDT 5:52 PM CDT
Civil Twilight 6:35 AM CDT 6:18 PM CDT
Nautical Twilight 6:05 AM CDT 6:47 PM CDT
Astronomical Twilight 5:36 AM CDT 7:16 PM CDT
Moon 6:26 PM CDT (10/30) 7:43 AM CDT (10/30)
Length of Visible Light 11h 42m
Length of Day
10h 51m
Full, 99% of the Moon is Illuminated
Oct 30
Full
Nov 6
Last Quarter
Nov 13
New
Nov 20
First Quarter
Nov 28
Full

Hourly Weather History & Observations

Time (CDT) Temp. Windchill Dew Point Humidity Pressure Visibility Wind Dir Wind Speed Gust Speed Precip Events Conditions
12:53 AM 46.0 °F 41.9 °F 25.0 °F 44% 29.90 in 10.0 mi NW 8.1 mph 18.4 mph N/A   Clear
1:53 AM 46.0 °F 41.0 °F 26.1 °F 46% 29.88 in 10.0 mi NW 10.4 mph 20.7 mph N/A   Clear
2:53 AM 45.0 °F 39.7 °F 27.0 °F 49% 29.86 in 10.0 mi West 10.4 mph 18.4 mph N/A   Clear
3:53 AM 44.1 °F 37.7 °F 26.1 °F 49% 29.85 in 10.0 mi WNW 12.7 mph 23.0 mph N/A   Clear
4:53 AM 37.9 °F 31.5 °F 28.0 °F 68% 29.86 in 10.0 mi WSW 9.2 mph - N/A   Clear
5:53 AM 36.0 °F 29.6 °F 28.9 °F 76% 29.87 in 10.0 mi WSW 8.1 mph - N/A   Clear
6:53 AM 37.9 °F 32.1 °F 28.9 °F 70% 29.88 in 10.0 mi WSW 8.1 mph - N/A   Clear
7:53 AM 39.9 °F 33.9 °F 28.9 °F 65% 29.89 in 10.0 mi West 9.2 mph - N/A   Clear
8:53 AM 44.1 °F 37.7 °F 28.0 °F 53% 29.89 in 10.0 mi West 12.7 mph - N/A   Clear
9:53 AM 48.0 °F - 24.1 °F 39% 29.88 in 10.0 mi West 12.7 mph 23.0 mph N/A   Clear
10:53 AM 50.0 °F - 21.0 °F 32% 29.89 in 10.0 mi WNW 16.1 mph 24.2 mph N/A   Clear
11:53 AM 54.0 °F - 19.9 °F 26% 29.87 in 10.0 mi WNW 13.8 mph 28.8 mph N/A   Clear
12:53 PM 54.0 °F - 19.0 °F 25% 29.85 in 10.0 mi West 13.8 mph 26.5 mph N/A   Clear
1:53 PM 54.0 °F - 19.0 °F 25% 29.84 in 10.0 mi West 20.7 mph 33.4 mph N/A   Clear
2:53 PM 55.9 °F - 21.0 °F 26% 29.82 in 10.0 mi West 17.3 mph 24.2 mph N/A   Clear
3:53 PM 57.0 °F - 21.0 °F 25% 29.82 in 10.0 mi West 12.7 mph 20.7 mph N/A   Clear
4:53 PM 55.9 °F - 21.0 °F 26% 29.83 in 10.0 mi West 15.0 mph 24.2 mph N/A   Clear
6:53 PM 50.0 °F - 26.1 °F 39% 29.87 in 10.0 mi West 5.8 mph - N/A   Clear
7:53 PM 43.0 °F 39.5 °F 28.9 °F 58% 29.89 in 10.0 mi WSW 5.8 mph - N/A   Clear
8:53 PM 42.1 °F 37.7 °F 28.9 °F 60% 29.91 in 10.0 mi West 6.9 mph - N/A   Clear
9:53 PM 39.9 °F - 30.9 °F 70% 29.92 in 10.0 mi Calm Calm - N/A   Clear
10:53 PM 35.1 °F 32.2 °F 30.0 °F 82% 29.93 in 10.0 mi SW 3.5 mph - N/A   Clear
11:53 PM 37.0 °F 33.3 °F 30.0 °F 76% 29.93 in 10.0 mi SW 4.6 mph - N/A   Clear